Location: Unspecified
(50.7693°N, 0.0000°E)
Time: 05:59:14
(UTC+00:00)

Transit 2A - Pass Details

Date: 16 August 2020
Orbit: 591 x 967 km, 66.7° (Epoch: 20 September)

Event Time Altitude Azimuth Distance (km) Brightness Sun altitude
Rises 22:33:00 0° 293° (WNW) 3,600 10.2 -22.9°
Reaches altitude 10° 22:36:22 10° 311° (NW) 2,691 9.7 -23.1°
Maximum altitude 22:40:46 19° 355° (N) 2,130 9.1 -23.3°
Drops below altitude 10° 22:45:11 10° 39° (NE) 2,712 9.2 -23.6°
Sets 22:48:36 0° 56° (ENE) 3,638 9.7 -23.8°
